This is the latest recevied weather packets stored in our database for station/object EA5JUX. If no packets are shown the sender has not sent any weather packets the latest 10 day(s).
| Time | Temp. | Humidity | Pressure | Rain* | Wind** | Luminosity | Snow |
|---|---|---|---|---|---|---|---|
| 1787677301 | 28.33° C | 57% | 1010.2 hPa | 0 mm | - | - | - |
| 1787677002 | 28.89° C | 56% | 1010.5 hPa | 0 mm | - | - | - |
| 1787676702 | 28.89° C | 58% | 1010.3 hPa | 0 mm | - | - | - |
| 1787676402 | 28.89° C | 58% | 1010.5 hPa | 0 mm | - | - | - |
| 1787676102 | 28.33° C | 60% | 1010.4 hPa | 0 mm | - | - | - |
| 1787675801 | 28.33° C | 62% | 1010.5 hPa | 0 mm | - | - | - |
| 1787675502 | 28.89° C | 61% | 1010.3 hPa | 0 mm | - | - | - |
| 1787675202 | 28.89° C | 59% | 1010.5 hPa | 0 mm | - | - | - |
| 1787674902 | 28.89° C | 58% | 1010.5 hPa | 0 mm | - | - | - |
| 1787674602 | 28.89° C | 56% | 1010.4 hPa | 0 mm | - | - | - |
| 1787674302 | 29.44° C | 55% | 1010.4 hPa | 0 mm | - | - | - |
| 1787674001 | 29.44° C | 57% | 1010.7 hPa | 0 mm | - | - | - |
| 1787673722 | 28.89° C | 56% | 1010.5 hPa | 0 mm | - | - | - |
| 1787673402 | 28.89° C | 58% | 1010.5 hPa | 0 mm | - | - | - |
| 1787673102 | 29.44° C | 59% | 1010.4 hPa | 0 mm | - | - | - |
| 1787672802 | 28.89° C | 61% | 1010.4 hPa | 0 mm | - | - | - |
| 1787672502 | 28.89° C | 61% | 1010.6 hPa | 0 mm | - | - | - |
| 1787672203 | 28.33° C | 64% | 1010.6 hPa | 0 mm | - | - | - |
| 1787671902 | 28.89° C | 63% | 1010.8 hPa | 0 mm | - | - | - |
| 1787671602 | 28.89° C | 61% | 1010.6 hPa | 0 mm | - | - | - |
| 1787671301 | 28.33° C | 65% | 1010.9 hPa | 0 mm | - | - | - |
| 1787671002 | 28.33° C | 66% | 1010.7 hPa | 0 mm | - | - | - |
| 1787670702 | 28.33° C | 67% | 1010.9 hPa | 0 mm | - | - | - |
| 1787670401 | 28.33° C | 68% | 1011 hPa | 0 mm | - | - | - |
| 1787670103 | 28.33° C | 67% | 1011.1 hPa | 0 mm | - | - | - |
* Rain latest hour (hover to see other rain measurements)
** Current wind speed in m/s (hover to see current wind gust speed)